UAL396 KSRQ-KORD

Flight info

Callsign UAL396
Flight time 2h 33m
Altitude 32000
Route TIDES1 MOMIE BRUTS Q118 KAILL Q118 VOSTK Q118 BONNT VEECK5
Aircraft B738/M-SDE2E3FGHIRWXY/LB1

Departure

Time 2026-04-21 19:47
Airport Sarasota Bradenton International Airport (KSRQ)

Arrival

Time 2026-04-21 22:20
Airport Chicago O'Hare International Airport (KORD)
Time Latitude Longitude Altitude Speed Heading
2026-04-21 19:32 27.39007 -82.55322 30 ft 0 kts 256°
2026-04-21 19:38 27.39012 -82.55296 30 ft 4 kts 271°
2026-04-21 19:39 27.39006 -82.55269 30 ft 4 kts 312°
2026-04-21 19:39 27.38991 -82.55258 30 ft 0 kts 355°
2026-04-21 19:43 27.39001 -82.55260 30 ft 5 kts 353°
2026-04-21 19:43 27.39065 -82.55267 30 ft 13 kts 359°
2026-04-21 19:43 27.39172 -82.55265 29 ft 17 kts 326°
2026-04-21 19:44 27.39265 -82.55369 29 ft 21 kts 315°
2026-04-21 19:44 27.39375 -82.55494 29 ft 25 kts 314°
2026-04-21 19:44 27.39498 -82.55640 30 ft 26 kts 313°
2026-04-21 19:44 27.39623 -82.55781 30 ft 25 kts 316°
2026-04-21 19:45 27.39738 -82.55915 30 ft 23 kts 314°
2026-04-21 19:45 27.39851 -82.56039 29 ft 22 kts 311°
2026-04-21 19:45 27.39957 -82.56164 29 ft 22 kts 316°
2026-04-21 19:45 27.40063 -82.56282 29 ft 21 kts 313°
2026-04-21 19:46 27.40164 -82.56399 29 ft 20 kts 315°
2026-04-21 19:46 27.40261 -82.56513 30 ft 20 kts 314°
2026-04-21 19:46 27.40354 -82.56614 30 ft 17 kts 329°
2026-04-21 19:46 27.40433 -82.56553 30 ft 16 kts 86°
2026-04-21 19:47 27.40344 -82.56425 29 ft 42 kts 134°
2026-04-21 19:47 27.39975 -82.55982 27 ft 111 kts 135°
2026-04-21 19:47 27.39303 -82.55198 75 ft 161 kts 129°
2026-04-21 19:47 27.38490 -82.54310 758 ft 165 kts 134°
2026-04-21 19:48 27.37688 -82.53397 1554 ft 164 kts 131°
2026-04-21 19:48 27.36853 -82.52413 2093 ft 181 kts 129°
2026-04-21 19:48 27.35979 -82.51369 2710 ft 193 kts 128°
2026-04-21 19:48 27.35006 -82.50228 3013 ft 212 kts 130°
2026-04-21 19:49 27.33935 -82.49018 3472 ft 221 kts 131°
2026-04-21 19:49 27.32839 -82.47787 4172 ft 223 kts 131°
2026-04-21 19:49 27.31744 -82.46564 5007 ft 222 kts 134°
2026-04-21 19:49 27.30362 -82.45712 5612 ft 237 kts 165°
2026-04-21 19:50 27.28691 -82.45823 6298 ft 251 kts 197°
2026-04-21 19:50 27.27235 -82.46937 7000 ft 254 kts 222°
2026-04-21 19:50 27.25998 -82.48331 7817 ft 251 kts 234°
2026-04-21 19:50 27.25316 -82.50119 8415 ft 257 kts 261°
2026-04-21 19:51 27.24999 -82.52189 8641 ft 281 kts 261°
2026-04-21 19:51 27.24675 -82.54399 9186 ft 290 kts 262°
2026-04-21 19:51 27.24443 -82.56649 9970 ft 290 kts 275°
2026-04-21 19:51 27.25002 -82.58789 10696 ft 287 kts 301°
2026-04-21 19:52 27.26217 -82.60578 11287 ft 292 kts 313°
2026-04-21 19:52 27.27613 -82.62258 11967 ft 293 kts 314°
2026-04-21 19:52 27.29036 -82.63935 12584 ft 298 kts 315°
2026-04-21 19:52 27.30447 -82.65606 13322 ft 299 kts 314°
2026-04-21 19:53 27.31889 -82.67329 13913 ft 305 kts 314°
2026-04-21 19:53 27.33336 -82.69074 14574 ft 306 kts 313°
2026-04-21 19:53 27.34794 -82.70842 15181 ft 308 kts 313°
2026-04-21 19:53 27.36250 -82.72613 15906 ft 306 kts 313°
2026-04-21 19:54 27.37705 -82.74381 16558 ft 308 kts 313°
2026-04-21 19:54 27.39383 -82.75856 17262 ft 308 kts 332°
2026-04-21 19:54 27.41334 -82.76810 17904 ft 310 kts 336°
2026-04-21 19:54 27.43380 -82.77752 18404 ft 315 kts 336°
2026-04-21 19:55 27.45417 -82.78703 18879 ft 321 kts 335°
2026-04-21 19:55 27.47566 -82.79375 19221 ft 333 kts 353°
2026-04-21 19:55 27.49956 -82.79353 19330 ft 352 kts 360°
2026-04-21 19:55 27.52450 -82.79215 19555 ft 364 kts 360°
2026-04-21 19:56 27.55001 -82.79092 20002 ft 368 kts 359°
2026-04-21 19:56 27.57560 -82.78990 20582 ft 368 kts 359°
2026-04-21 19:56 27.60122 -82.78923 21157 ft 368 kts 357°
2026-04-21 19:56 27.62694 -82.78903 21651 ft 371 kts 356°
2026-04-21 19:57 27.65287 -82.78898 22129 ft 374 kts 356°
2026-04-21 19:57 27.67896 -82.78894 22625 ft 376 kts 356°
2026-04-21 19:57 27.70520 -82.78885 23130 ft 378 kts 356°
2026-04-21 19:57 27.73168 -82.78873 23577 ft 382 kts 356°
2026-04-21 19:58 27.75833 -82.78858 24004 ft 384 kts 356°
2026-04-21 19:58 27.78510 -82.78842 24423 ft 386 kts 355°
2026-04-21 19:58 27.81207 -82.78824 24774 ft 389 kts 355°
2026-04-21 19:58 27.83928 -82.78807 25131 ft 393 kts 355°
2026-04-21 19:59 27.86665 -82.78789 25540 ft 394 kts 355°
2026-04-21 19:59 27.89379 -82.78771 25948 ft 395 kts 355°
2026-04-21 19:59 27.92127 -82.78753 26382 ft 395 kts 355°
2026-04-21 19:59 27.94877 -82.78736 26787 ft 396 kts 355°
2026-04-21 20:00 27.97646 -82.78719 27142 ft 398 kts 355°
2026-04-21 20:00 28.00431 -82.78702 27496 ft 401 kts 355°
2026-04-21 20:00 28.03222 -82.78685 27866 ft 402 kts 355°
2026-04-21 20:00 28.06022 -82.78667 28229 ft 404 kts 355°
2026-04-21 20:01 28.08845 -82.78650 28585 ft 406 kts 355°
2026-04-21 20:01 28.11675 -82.78632 28971 ft 406 kts 355°
2026-04-21 20:01 28.14507 -82.78613 29340 ft 407 kts 355°
2026-04-21 20:01 28.17350 -82.78595 29682 ft 409 kts 355°
2026-04-21 20:02 28.20196 -82.78577 30082 ft 409 kts 355°
2026-04-21 20:02 28.23049 -82.78559 30379 ft 411 kts 355°
2026-04-21 20:02 28.25928 -82.78541 30581 ft 414 kts 355°
2026-04-21 20:02 28.28820 -82.78523 30810 ft 417 kts 355°
2026-04-21 20:03 28.31723 -82.78504 31053 ft 418 kts 355°
2026-04-21 20:03 28.34642 -82.78485 31254 ft 421 kts 355°
2026-04-21 20:03 28.37580 -82.78466 31478 ft 423 kts 355°
2026-04-21 20:03 28.40489 -82.78476 31742 ft 421 kts 351°
2026-04-21 20:04 28.43319 -82.79100 32045 ft 411 kts 338°
2026-04-21 20:04 28.46038 -82.80102 32239 ft 413 kts 338°
2026-04-21 20:04 28.48785 -82.81091 32253 ft 414 kts 339°
2026-04-21 20:05 28.54268 -82.83001 32237 ft 407 kts 339°
2026-04-21 20:05 28.59694 -82.84864 32268 ft 410 kts 339°
2026-04-21 20:06 28.65229 -82.86768 32405 ft 420 kts 339°
2026-04-21 20:06 28.68034 -82.87733 32588 ft 422 kts 339°
2026-04-21 20:06 28.70833 -82.88697 32905 ft 420 kts 339°
2026-04-21 20:06 28.73621 -82.89655 33299 ft 417 kts 339°
2026-04-21 20:07 28.76391 -82.90607 33652 ft 414 kts 339°
2026-04-21 20:07 28.79148 -82.91554 33994 ft 413 kts 339°
2026-04-21 20:07 28.81881 -82.92492 34374 ft 409 kts 339°
2026-04-21 20:07 28.84601 -82.93421 34608 ft 409 kts 339°
2026-04-21 20:08 28.87301 -82.94338 34711 ft 411 kts 339°
2026-04-21 20:08 28.90045 -82.95264 34870 ft 412 kts 339°
2026-04-21 20:08 28.92794 -82.96183 35084 ft 411 kts 339°
2026-04-21 20:08 28.95544 -82.97092 35281 ft 411 kts 339°
2026-04-21 20:09 28.98304 -82.97995 35439 ft 412 kts 339°
2026-04-21 20:09 29.01071 -82.98892 35589 ft 413 kts 339°
2026-04-21 20:09 29.03816 -82.99842 35758 ft 412 kts 337°
2026-04-21 20:09 29.06540 -83.00881 35939 ft 412 kts 336°
2026-04-21 20:10 29.09243 -83.01942 36186 ft 410 kts 335°
2026-04-21 20:10 29.14669 -83.04062 36248 ft 414 kts 336°
2026-04-21 20:11 29.20124 -83.06148 36242 ft 412 kts 336°
2026-04-21 20:11 29.25545 -83.08195 36245 ft 409 kts 336°
2026-04-21 20:12 29.30905 -83.10214 36249 ft 407 kts 336°
2026-04-21 20:12 29.35404 -83.11911 36250 ft 406 kts 336°
2026-04-21 20:13 29.41630 -83.14262 36257 ft 405 kts 336°
2026-04-21 20:13 29.46997 -83.16292 36235 ft 406 kts 336°
2026-04-21 20:14 29.52366 -83.18325 36252 ft 407 kts 336°
2026-04-21 20:14 29.57754 -83.20368 36251 ft 408 kts 336°
2026-04-21 20:15 29.63159 -83.22419 36252 ft 410 kts 336°
2026-04-21 20:15 29.68594 -83.24484 36256 ft 412 kts 336°
2026-04-21 20:16 29.74047 -83.26556 36255 ft 413 kts 336°
2026-04-21 20:16 29.79517 -83.28638 36253 ft 414 kts 336°
2026-04-21 20:17 29.84982 -83.30720 36253 ft 413 kts 336°
2026-04-21 20:17 29.90402 -83.32788 36256 ft 412 kts 336°
2026-04-21 20:18 29.94962 -83.34529 36285 ft 411 kts 336°
2026-04-21 20:18 30.01267 -83.36940 36269 ft 410 kts 336°
2026-04-21 20:19 30.06671 -83.39010 36264 ft 408 kts 336°
2026-04-21 20:19 30.12061 -83.41075 36268 ft 407 kts 336°
2026-04-21 20:20 30.17435 -83.43138 36270 ft 406 kts 336°
2026-04-21 20:20 30.22753 -83.45181 36268 ft 405 kts 336°
2026-04-21 20:21 30.28112 -83.47243 36264 ft 405 kts 336°
2026-04-21 20:21 30.33464 -83.49305 36271 ft 405 kts 336°
2026-04-21 20:22 30.38823 -83.51371 36282 ft 406 kts 336°
2026-04-21 20:22 30.46873 -83.54480 36275 ft 407 kts 336°
2026-04-21 20:23 30.51350 -83.56211 36283 ft 408 kts 336°
2026-04-21 20:23 30.56752 -83.58302 36282 ft 410 kts 336°
2026-04-21 20:24 30.62173 -83.60403 36291 ft 411 kts 336°
2026-04-21 20:24 30.67609 -83.62512 36297 ft 412 kts 336°
2026-04-21 20:25 30.73059 -83.64629 36288 ft 413 kts 336°
2026-04-21 20:25 30.78520 -83.66752 36288 ft 414 kts 336°
2026-04-21 20:26 30.83941 -83.68862 36282 ft 411 kts 335°
2026-04-21 20:26 30.86606 -83.69895 36331 ft 396 kts 335°
2026-04-21 20:26 30.89199 -83.70901 36280 ft 390 kts 335°
2026-04-21 20:27 30.94357 -83.72918 36270 ft 393 kts 335°
2026-04-21 20:27 30.99595 -83.74973 36293 ft 400 kts 335°
2026-04-21 20:28 31.04924 -83.77061 36300 ft 407 kts 335°
2026-04-21 20:28 31.10307 -83.79170 36305 ft 412 kts 335°
2026-04-21 20:29 31.15769 -83.81309 36295 ft 415 kts 335°
2026-04-21 20:29 31.21259 -83.83463 36296 ft 417 kts 335°
2026-04-21 20:30 31.26748 -83.85618 36282 ft 413 kts 335°
2026-04-21 20:30 31.32133 -83.87734 36294 ft 405 kts 335°
2026-04-21 20:31 31.37482 -83.89845 36305 ft 406 kts 335°
2026-04-21 20:31 31.42842 -83.91961 36298 ft 407 kts 335°
2026-04-21 20:32 31.48213 -83.94083 36309 ft 408 kts 335°
2026-04-21 20:32 31.53614 -83.96087 36302 ft 414 kts 341°
2026-04-21 20:33 31.59296 -83.97380 36305 ft 417 kts 343°
2026-04-21 20:33 31.65023 -83.98578 36309 ft 418 kts 343°
2026-04-21 20:34 31.70764 -83.99812 36307 ft 419 kts 343°
2026-04-21 20:34 31.76507 -84.01078 36306 ft 420 kts 343°
2026-04-21 20:35 31.82254 -84.02358 36307 ft 420 kts 343°
2026-04-21 20:35 31.88001 -84.03642 36309 ft 420 kts 343°
2026-04-21 20:36 31.93749 -84.04927 36319 ft 420 kts 342°
2026-04-21 20:36 31.99451 -84.06203 36291 ft 419 kts 342°
2026-04-21 20:37 32.05173 -84.07485 36275 ft 418 kts 342°
2026-04-21 20:37 32.10921 -84.08774 36277 ft 417 kts 342°
2026-04-21 20:38 32.16577 -84.10045 36274 ft 416 kts 342°
2026-04-21 20:38 32.22249 -84.11321 36302 ft 414 kts 342°
2026-04-21 20:39 32.27883 -84.12590 36290 ft 414 kts 342°
2026-04-21 20:39 32.33533 -84.13865 36290 ft 413 kts 342°
2026-04-21 20:40 32.39183 -84.15141 36300 ft 413 kts 342°
2026-04-21 20:40 32.44824 -84.16416 36303 ft 412 kts 342°
2026-04-21 20:41 32.50454 -84.17691 36320 ft 412 kts 342°
2026-04-21 20:41 32.56048 -84.18960 36308 ft 412 kts 342°
2026-04-21 20:42 32.61682 -84.20239 36304 ft 412 kts 342°
2026-04-21 20:42 32.67316 -84.21519 36313 ft 412 kts 342°
2026-04-21 20:43 32.72956 -84.22802 36318 ft 412 kts 342°
2026-04-21 20:43 32.78591 -84.24081 36336 ft 412 kts 342°
2026-04-21 20:44 32.84226 -84.25370 36322 ft 413 kts 342°
2026-04-21 20:44 32.89871 -84.26661 36323 ft 413 kts 342°
2026-04-21 20:45 32.95476 -84.27944 36337 ft 413 kts 342°
2026-04-21 20:45 33.01126 -84.29240 36308 ft 413 kts 342°
2026-04-21 20:46 33.06793 -84.30544 36315 ft 416 kts 342°
2026-04-21 20:46 33.12488 -84.31849 36326 ft 417 kts 342°
2026-04-21 20:47 33.18214 -84.33163 36332 ft 418 kts 342°
2026-04-21 20:47 33.23933 -84.34480 36334 ft 419 kts 342°
2026-04-21 20:48 33.29652 -84.35798 36343 ft 418 kts 342°
2026-04-21 20:48 33.35330 -84.37108 36342 ft 418 kts 342°
2026-04-21 20:49 33.41042 -84.38428 36325 ft 417 kts 342°
2026-04-21 20:49 33.46736 -84.39747 36322 ft 416 kts 342°
2026-04-21 20:50 33.52414 -84.41063 36328 ft 415 kts 342°
2026-04-21 20:50 33.58076 -84.42378 36348 ft 414 kts 342°
2026-04-21 20:51 33.63739 -84.43692 36340 ft 414 kts 342°
2026-04-21 20:51 33.69379 -84.44934 36331 ft 414 kts 343°
2026-04-21 20:52 33.75050 -84.46162 36321 ft 414 kts 343°
2026-04-21 20:52 33.80710 -84.47397 36320 ft 413 kts 342°
2026-04-21 20:53 33.86367 -84.48638 36310 ft 413 kts 343°
2026-04-21 20:53 33.92028 -84.49883 36307 ft 413 kts 343°
2026-04-21 20:54 33.97693 -84.51130 36309 ft 413 kts 343°
2026-04-21 20:54 34.03356 -84.52362 36328 ft 415 kts 345°
2026-04-21 20:55 34.09138 -84.53095 36330 ft 419 kts 348°
2026-04-21 20:55 34.14962 -84.53627 36332 ft 420 kts 348°
2026-04-21 20:56 34.20793 -84.54181 36314 ft 420 kts 348°
2026-04-21 20:56 34.26611 -84.54770 36305 ft 419 kts 348°
2026-04-21 20:57 34.32379 -84.55373 36317 ft 419 kts 348°
2026-04-21 20:57 34.38185 -84.55984 36336 ft 418 kts 348°
2026-04-21 20:58 34.43984 -84.56595 36316 ft 418 kts 348°
2026-04-21 20:58 34.49783 -84.57207 36294 ft 418 kts 348°
2026-04-21 20:59 34.55580 -84.57819 36282 ft 418 kts 348°
2026-04-21 20:59 34.61371 -84.58432 36287 ft 417 kts 348°
2026-04-21 21:00 34.67166 -84.59045 36286 ft 418 kts 348°
2026-04-21 21:00 34.72955 -84.59659 36293 ft 417 kts 348°
2026-04-21 21:01 34.78705 -84.60269 36285 ft 417 kts 348°
2026-04-21 21:01 34.84489 -84.60885 36291 ft 418 kts 348°
2026-04-21 21:02 34.90297 -84.61504 36300 ft 418 kts 348°
2026-04-21 21:02 34.96096 -84.62122 36288 ft 418 kts 348°
2026-04-21 21:03 35.01895 -84.62741 36282 ft 417 kts 348°
2026-04-21 21:03 35.07670 -84.63357 36272 ft 416 kts 348°
2026-04-21 21:04 35.13436 -84.63975 36305 ft 415 kts 348°
2026-04-21 21:04 35.19200 -84.64593 36258 ft 415 kts 348°
2026-04-21 21:05 35.24908 -84.65206 36253 ft 414 kts 348°
2026-04-21 21:05 35.30649 -84.65823 36279 ft 414 kts 348°
2026-04-21 21:06 35.36377 -84.66440 36288 ft 413 kts 348°
2026-04-21 21:06 35.42103 -84.67063 36283 ft 413 kts 348°
2026-04-21 21:07 35.47843 -84.67684 36291 ft 414 kts 348°
2026-04-21 21:07 35.53594 -84.68303 36287 ft 416 kts 348°
2026-04-21 21:08 35.59372 -84.68928 36286 ft 417 kts 348°
2026-04-21 21:08 35.64189 -84.69450 36291 ft 419 kts 348°
2026-04-21 21:09 35.70962 -84.70187 36278 ft 421 kts 348°
2026-04-21 21:09 35.76811 -84.70823 36275 ft 423 kts 348°
2026-04-21 21:10 35.81731 -84.71358 36275 ft 424 kts 348°
2026-04-21 21:10 35.87578 -84.71995 36281 ft 425 kts 348°
2026-04-21 21:11 35.93483 -84.72640 36268 ft 426 kts 348°
2026-04-21 21:11 35.99389 -84.73286 36265 ft 425 kts 348°
2026-04-21 21:12 36.05269 -84.73929 36256 ft 423 kts 348°
2026-04-21 21:12 36.11124 -84.74571 36263 ft 422 kts 348°
2026-04-21 21:13 36.16933 -84.75211 36275 ft 421 kts 349°
2026-04-21 21:13 36.22769 -84.75853 36259 ft 421 kts 349°
2026-04-21 21:14 36.28609 -84.76498 36255 ft 422 kts 349°
2026-04-21 21:14 36.34469 -84.77145 36251 ft 423 kts 349°
2026-04-21 21:15 36.40343 -84.77795 36264 ft 424 kts 349°
2026-04-21 21:15 36.46291 -84.78048 36258 ft 430 kts 355°
2026-04-21 21:16 36.52255 -84.77817 36244 ft 432 kts 356°
2026-04-21 21:16 36.58282 -84.77570 36260 ft 433 kts 356°
2026-04-21 21:17 36.64315 -84.77370 36280 ft 434 kts 356°
2026-04-21 21:17 36.70370 -84.77194 36259 ft 435 kts 355°
2026-04-21 21:18 36.76414 -84.77022 36260 ft 434 kts 356°
2026-04-21 21:18 36.82448 -84.76849 36244 ft 434 kts 355°
2026-04-21 21:19 36.88483 -84.76676 36267 ft 433 kts 355°
2026-04-21 21:19 36.94510 -84.76502 36248 ft 432 kts 355°
2026-04-21 21:20 37.00477 -84.76329 36196 ft 431 kts 355°
2026-04-21 21:20 37.06469 -84.76155 36201 ft 430 kts 355°
2026-04-21 21:21 37.12445 -84.75983 36233 ft 429 kts 355°
2026-04-21 21:21 37.18419 -84.75810 36216 ft 429 kts 355°
2026-04-21 21:22 37.24376 -84.75636 36215 ft 428 kts 355°
2026-04-21 21:22 37.30323 -84.75463 36224 ft 427 kts 355°
2026-04-21 21:23 37.36266 -84.75282 36236 ft 427 kts 355°
2026-04-21 21:23 37.42209 -84.75081 36216 ft 427 kts 355°
2026-04-21 21:24 37.48110 -84.74882 36211 ft 427 kts 355°
2026-04-21 21:24 37.54082 -84.74682 36209 ft 426 kts 356°
2026-04-21 21:25 37.59981 -84.74485 36236 ft 426 kts 355°
2026-04-21 21:25 37.65913 -84.74288 36215 ft 426 kts 355°
2026-04-21 21:26 37.71854 -84.74089 36210 ft 427 kts 355°
2026-04-21 21:26 37.77801 -84.73905 36200 ft 427 kts 355°
2026-04-21 21:27 37.83749 -84.73729 36213 ft 428 kts 355°
2026-04-21 21:27 37.89676 -84.73552 36192 ft 429 kts 355°
2026-04-21 21:28 37.95652 -84.73372 36187 ft 430 kts 355°
2026-04-21 21:29 38.04628 -84.73099 36176 ft 430 kts 355°
2026-04-21 21:29 38.10618 -84.72916 36177 ft 431 kts 355°
2026-04-21 21:30 38.16619 -84.72733 36173 ft 431 kts 355°
2026-04-21 21:30 38.22577 -84.72551 36163 ft 430 kts 355°
2026-04-21 21:31 38.28563 -84.72368 36166 ft 430 kts 355°
2026-04-21 21:31 38.34544 -84.72185 36161 ft 429 kts 355°
2026-04-21 21:32 38.40517 -84.72002 36159 ft 429 kts 355°
2026-04-21 21:32 38.46461 -84.72057 36146 ft 421 kts 346°
2026-04-21 21:33 38.51981 -84.73926 36161 ft 410 kts 334°
2026-04-21 21:33 38.57332 -84.76462 36159 ft 410 kts 334°
2026-04-21 21:34 38.62701 -84.78989 36147 ft 411 kts 334°
2026-04-21 21:34 38.68087 -84.81496 36136 ft 412 kts 334°
2026-04-21 21:35 38.73482 -84.83999 36129 ft 412 kts 334°
2026-04-21 21:35 38.78877 -84.86504 36157 ft 413 kts 335°
2026-04-21 21:36 38.84283 -84.89019 36136 ft 414 kts 335°
2026-04-21 21:36 38.89661 -84.91526 36117 ft 414 kts 335°
2026-04-21 21:37 38.95077 -84.94055 36117 ft 414 kts 334°
2026-04-21 21:37 39.00489 -84.96595 36117 ft 414 kts 334°
2026-04-21 21:38 39.05905 -84.99144 36115 ft 414 kts 335°
2026-04-21 21:38 39.11323 -85.01697 36105 ft 414 kts 335°
2026-04-21 21:39 39.16731 -85.04249 36091 ft 414 kts 335°
2026-04-21 21:39 39.22133 -85.06803 36080 ft 413 kts 335°
2026-04-21 21:40 39.27538 -85.09363 36087 ft 413 kts 335°
2026-04-21 21:40 39.32938 -85.11924 36081 ft 413 kts 335°
2026-04-21 21:41 39.38312 -85.14469 36091 ft 413 kts 335°
2026-04-21 21:41 39.43712 -85.17011 36094 ft 413 kts 335°
2026-04-21 21:42 39.49111 -85.19558 36101 ft 413 kts 335°
2026-04-21 21:42 39.54513 -85.22114 36091 ft 413 kts 335°
2026-04-21 21:43 39.59916 -85.24674 36069 ft 413 kts 335°
2026-04-21 21:43 39.65311 -85.27240 35791 ft 413 kts 335°
2026-04-21 21:43 39.68006 -85.28526 35548 ft 412 kts 335°
2026-04-21 21:44 39.70699 -85.29813 35306 ft 413 kts 335°
2026-04-21 21:44 39.73402 -85.31107 35085 ft 413 kts 335°
2026-04-21 21:44 39.76103 -85.32400 34806 ft 413 kts 335°
2026-04-21 21:44 39.78801 -85.33692 34565 ft 414 kts 335°
2026-04-21 21:45 39.81505 -85.34989 34292 ft 415 kts 335°
2026-04-21 21:45 39.84179 -85.36272 34013 ft 416 kts 335°
2026-04-21 21:45 39.86898 -85.37578 33690 ft 416 kts 335°
2026-04-21 21:45 39.89612 -85.38882 33370 ft 417 kts 335°
2026-04-21 21:46 39.92331 -85.40190 33046 ft 417 kts 335°
2026-04-21 21:46 39.95055 -85.41501 32751 ft 417 kts 335°
2026-04-21 21:46 39.97780 -85.42814 32430 ft 417 kts 335°
2026-04-21 21:46 40.00502 -85.44128 32123 ft 417 kts 336°
2026-04-21 21:47 40.03219 -85.45438 31816 ft 417 kts 336°
2026-04-21 21:47 40.05943 -85.46753 31497 ft 417 kts 336°
2026-04-21 21:47 40.08667 -85.48070 31169 ft 418 kts 336°
2026-04-21 21:47 40.11395 -85.49390 30853 ft 418 kts 336°
2026-04-21 21:48 40.14099 -85.50700 30535 ft 419 kts 336°
2026-04-21 21:48 40.16868 -85.52042 30237 ft 420 kts 336°
2026-04-21 21:48 40.19614 -85.53374 29900 ft 421 kts 336°
2026-04-21 21:48 40.22360 -85.54708 29527 ft 421 kts 336°
2026-04-21 21:49 40.25076 -85.56027 29222 ft 421 kts 336°
2026-04-21 21:49 40.27839 -85.57371 28944 ft 421 kts 336°
2026-04-21 21:49 40.30578 -85.58704 28672 ft 421 kts 336°
2026-04-21 21:49 40.33291 -85.60024 28368 ft 410 kts 336°
2026-04-21 21:50 40.35933 -85.61309 28104 ft 400 kts 336°
2026-04-21 21:50 40.41064 -85.63815 28016 ft 391 kts 335°
2026-04-21 21:51 40.46183 -85.66323 28004 ft 393 kts 335°
2026-04-21 21:51 40.51350 -85.68734 27998 ft 395 kts 339°
2026-04-21 21:52 40.56661 -85.70668 28004 ft 396 kts 341°
2026-04-21 21:52 40.59320 -85.71603 28000 ft 396 kts 340°
2026-04-21 21:52 40.61981 -85.72552 28001 ft 396 kts 340°
2026-04-21 21:52 40.64575 -85.73490 27976 ft 386 kts 340°
2026-04-21 21:53 40.67151 -85.74431 27557 ft 382 kts 340°
2026-04-21 21:53 40.69707 -85.75374 27059 ft 381 kts 340°
2026-04-21 21:53 40.72251 -85.76317 26542 ft 380 kts 340°
2026-04-21 21:53 40.74837 -85.77277 25974 ft 381 kts 340°
2026-04-21 21:54 40.77375 -85.78217 25554 ft 378 kts 340°
2026-04-21 21:54 40.79902 -85.79154 25128 ft 376 kts 340°
2026-04-21 21:54 40.82390 -85.80076 24731 ft 374 kts 340°
2026-04-21 21:54 40.84785 -85.81310 24307 ft 366 kts 324°
2026-04-21 21:55 40.86708 -85.83433 24075 ft 357 kts 310°
2026-04-21 21:55 40.88156 -85.86084 24034 ft 358 kts 297°
2026-04-21 21:55 40.89222 -85.89084 24023 ft 363 kts 294°
2026-04-21 21:55 40.90219 -85.92177 24003 ft 365 kts 293°
2026-04-21 21:56 40.90863 -85.94224 23988 ft 364 kts 292°
2026-04-21 21:56 40.91834 -85.97316 23981 ft 363 kts 293°
2026-04-21 21:56 40.92808 -86.00396 23986 ft 364 kts 293°
2026-04-21 21:56 40.93784 -86.03456 23953 ft 355 kts 293°
2026-04-21 21:57 40.94744 -86.06450 23585 ft 353 kts 293°
2026-04-21 21:57 40.95709 -86.09443 22976 ft 355 kts 293°
2026-04-21 21:57 40.96678 -86.12447 22566 ft 353 kts 293°
2026-04-21 21:57 40.97640 -86.15427 22205 ft 350 kts 293°
2026-04-21 21:58 40.98588 -86.18365 21887 ft 345 kts 293°
2026-04-21 21:58 40.99529 -86.21282 21575 ft 344 kts 293°
2026-04-21 21:58 41.00471 -86.24207 21275 ft 348 kts 293°
2026-04-21 21:58 41.01445 -86.27233 20989 ft 367 kts 293°
2026-04-21 21:59 41.02453 -86.30368 20685 ft 371 kts 293°
2026-04-21 21:59 41.03463 -86.33513 20364 ft 370 kts 293°
2026-04-21 21:59 41.04452 -86.36598 20034 ft 367 kts 293°
2026-04-21 21:59 41.05459 -86.39743 19708 ft 365 kts 293°
2026-04-21 22:00 41.06436 -86.42797 19393 ft 364 kts 293°
2026-04-21 22:00 41.07419 -86.45872 19088 ft 362 kts 293°
2026-04-21 22:00 41.08400 -86.48946 18786 ft 360 kts 293°
2026-04-21 22:00 41.09372 -86.51993 18473 ft 358 kts 293°
2026-04-21 22:01 41.10338 -86.55025 18158 ft 356 kts 293°
2026-04-21 22:01 41.11300 -86.58048 17806 ft 354 kts 292°
2026-04-21 22:01 41.12254 -86.61047 17462 ft 352 kts 292°
2026-04-21 22:01 41.13045 -86.64114 17106 ft 350 kts 284°
2026-04-21 22:02 41.13524 -86.67269 16806 ft 348 kts 281°
2026-04-21 22:02 41.13938 -86.70420 16497 ft 346 kts 281°
2026-04-21 22:02 41.14428 -86.73537 16190 ft 344 kts 286°
2026-04-21 22:02 41.15351 -86.76407 15898 ft 342 kts 297°
2026-04-21 22:03 41.16555 -86.79124 15594 ft 341 kts 300°
2026-04-21 22:03 41.17843 -86.81759 15298 ft 340 kts 301°
2026-04-21 22:03 41.19152 -86.84359 15003 ft 338 kts 302°
2026-04-21 22:03 41.20459 -86.86950 14718 ft 337 kts 301°
2026-04-21 22:04 41.21758 -86.89539 14428 ft 336 kts 301°
2026-04-21 22:04 41.23043 -86.92117 14158 ft 335 kts 301°
2026-04-21 22:04 41.24323 -86.94697 13890 ft 335 kts 301°
2026-04-21 22:04 41.25598 -86.97274 13588 ft 332 kts 300°
2026-04-21 22:05 41.26856 -86.99821 13252 ft 327 kts 300°
2026-04-21 22:05 41.28096 -87.02338 12935 ft 323 kts 300°
2026-04-21 22:05 41.29326 -87.04840 12635 ft 324 kts 300°
2026-04-21 22:05 41.30558 -87.07348 12329 ft 323 kts 300°
2026-04-21 22:06 41.31787 -87.09850 12043 ft 322 kts 300°
2026-04-21 22:06 41.33015 -87.12352 11739 ft 322 kts 300°
2026-04-21 22:06 41.34221 -87.14810 11447 ft 321 kts 300°
2026-04-21 22:06 41.35442 -87.17302 11169 ft 321 kts 300°
2026-04-21 22:07 41.36737 -87.19724 11052 ft 322 kts 308°
2026-04-21 22:07 41.38376 -87.21782 11027 ft 325 kts 314°
2026-04-21 22:07 41.40085 -87.23756 11006 ft 325 kts 314°
2026-04-21 22:07 41.41788 -87.25733 11018 ft 325 kts 314°
2026-04-21 22:08 41.43486 -87.27728 11018 ft 325 kts 313°
2026-04-21 22:08 41.45178 -87.29737 11009 ft 325 kts 313°
2026-04-21 22:08 41.46859 -87.31747 11011 ft 325 kts 313°
2026-04-21 22:08 41.48538 -87.33759 11024 ft 324 kts 313°
2026-04-21 22:09 41.50217 -87.35766 11021 ft 324 kts 314°
2026-04-21 22:09 41.52015 -87.37603 11029 ft 327 kts 320°
2026-04-21 22:09 41.53917 -87.39277 11048 ft 328 kts 321°
2026-04-21 22:09 41.55842 -87.40931 11037 ft 329 kts 321°
2026-04-21 22:10 41.57736 -87.42576 11035 ft 328 kts 321°
2026-04-21 22:10 41.59664 -87.44276 11042 ft 328 kts 321°
2026-04-21 22:10 41.61541 -87.45952 11016 ft 327 kts 320°
2026-04-21 22:10 41.63417 -87.47634 10760 ft 323 kts 320°
2026-04-21 22:11 41.65269 -87.49297 10381 ft 320 kts 320°
2026-04-21 22:11 41.67004 -87.51026 10321 ft 304 kts 318°
2026-04-21 22:11 41.68923 -87.52204 10253 ft 309 kts 341°
2026-04-21 22:11 41.71075 -87.52371 10201 ft 310 kts 353°
2026-04-21 22:12 41.73204 -87.52225 10116 ft 301 kts 355°
2026-04-21 22:12 41.75266 -87.52027 10069 ft 291 kts 356°
2026-04-21 22:12 41.77255 -87.51825 9982 ft 282 kts 356°
2026-04-21 22:12 41.79195 -87.51619 9655 ft 277 kts 356°
2026-04-21 22:13 41.81121 -87.51415 9134 ft 278 kts 356°
2026-04-21 22:13 41.83052 -87.51214 8664 ft 278 kts 356°
2026-04-21 22:13 41.84975 -87.51016 8236 ft 277 kts 356°
2026-04-21 22:13 41.86857 -87.50919 7784 ft 271 kts 348°
2026-04-21 22:14 41.88726 -87.51102 7362 ft 268 kts 346°
2026-04-21 22:14 41.90579 -87.51335 6933 ft 267 kts 346°
2026-04-21 22:14 41.92421 -87.51576 6532 ft 266 kts 346°
2026-04-21 22:14 41.94199 -87.52045 6063 ft 254 kts 328°
2026-04-21 22:15 41.95543 -87.53443 5542 ft 241 kts 301°
2026-04-21 22:15 41.96331 -87.55370 5078 ft 233 kts 279°
2026-04-21 22:15 41.96481 -87.57513 4694 ft 228 kts 270°
2026-04-21 22:15 41.96584 -87.59606 4470 ft 221 kts 271°
2026-04-21 22:16 41.96654 -87.61643 4318 ft 214 kts 269°
2026-04-21 22:16 41.96667 -87.63595 4172 ft 203 kts 267°
2026-04-21 22:16 41.96661 -87.65492 4023 ft 206 kts 267°
2026-04-21 22:16 41.96651 -87.67424 3797 ft 208 kts 267°
2026-04-21 22:17 41.96641 -87.69371 3512 ft 214 kts 268°
2026-04-21 22:17 41.96633 -87.71387 3248 ft 218 kts 268°
2026-04-21 22:17 41.96626 -87.73423 2940 ft 218 kts 268°
2026-04-21 22:17 41.96618 -87.75442 2657 ft 215 kts 268°
2026-04-21 22:18 41.96613 -87.77392 2361 ft 201 kts 267°
2026-04-21 22:18 41.96607 -87.79193 2114 ft 186 kts 268°
2026-04-21 22:18 41.96600 -87.80869 1880 ft 173 kts 265°
2026-04-21 22:18 41.96597 -87.82414 1691 ft 157 kts 267°
2026-04-21 22:19 41.96594 -87.83821 1452 ft 141 kts 267°
2026-04-21 22:19 41.96587 -87.85090 1274 ft 134 kts 269°
2026-04-21 22:19 41.96576 -87.86318 1104 ft 135 kts 274°
2026-04-21 22:19 41.96588 -87.87681 964 ft 155 kts 269°
2026-04-21 22:20 41.96574 -87.89121 746 ft 151 kts 270°
2026-04-21 22:20 41.96575 -87.90463 669 ft 129 kts 270°
2026-04-21 22:20 41.96574 -87.91464 667 ft 85 kts 270°
2026-04-21 22:20 41.96572 -87.92036 669 ft 38 kts 269°
2026-04-21 22:21 41.96573 -87.92372 668 ft 34 kts 270°
2026-04-21 22:21 41.96614 -87.92537 669 ft 17 kts 350°
2026-04-21 22:21 41.96721 -87.92511 667 ft 16 kts 51°
2026-04-21 22:21 41.96737 -87.92369 668 ft 15 kts 87°
2026-04-21 22:22 41.96739 -87.92225 668 ft 15 kts 94°
2026-04-21 22:22 41.96737 -87.92091 667 ft 14 kts 91°
2026-04-21 22:22 41.96737 -87.91958 668 ft 15 kts 89°
2026-04-21 22:22 41.96738 -87.91809 668 ft 17 kts 89°
2026-04-21 22:23 41.96738 -87.91633 668 ft 22 kts 90°
2026-04-21 22:23 41.96738 -87.91393 668 ft 28 kts 90°
2026-04-21 22:23 41.96738 -87.91129 668 ft 27 kts 90°
2026-04-21 22:23 41.96738 -87.90880 668 ft 26 kts 90°
2026-04-21 22:24 41.96738 -87.90648 667 ft 24 kts 90°
2026-04-21 22:24 41.96738 -87.90430 668 ft 23 kts 90°
2026-04-21 22:24 41.96739 -87.90223 668 ft 22 kts 90°
2026-04-21 22:24 41.96742 -87.90019 668 ft 22 kts 90°
2026-04-21 22:25 41.96742 -87.89820 668 ft 21 kts 90°
2026-04-21 22:25 41.96742 -87.89628 668 ft 20 kts 91°
2026-04-21 22:25 41.96740 -87.89442 668 ft 20 kts 90°
2026-04-21 22:25 41.96740 -87.89261 668 ft 19 kts 89°
2026-04-21 22:26 41.96790 -87.89103 665 ft 18 kts 46°
2026-04-21 22:26 41.96911 -87.89071 667 ft 18 kts
2026-04-21 22:26 41.97032 -87.89072 667 ft 17 kts 359°
2026-04-21 22:26 41.97149 -87.89074 668 ft 17 kts 354°
2026-04-21 22:27 41.97195 -87.89195 668 ft 16 kts 270°
2026-04-21 22:27 41.97194 -87.89341 668 ft 15 kts 270°
2026-04-21 22:27 41.97197 -87.89479 668 ft 15 kts 279°
2026-04-21 22:27 41.97235 -87.89598 668 ft 14 kts 260°
2026-04-21 22:28 41.97198 -87.89715 666 ft 13 kts 242°
2026-04-21 22:28 41.97157 -87.89825 668 ft 13 kts 248°
2026-04-21 22:28 41.97138 -87.89941 668 ft 13 kts 266°
2026-04-21 22:28 41.97135 -87.90057 668 ft 12 kts 269°
2026-04-21 22:29 41.97136 -87.90170 668 ft 12 kts 271°
2026-04-21 22:29 41.97136 -87.90280 668 ft 12 kts 270°
2026-04-21 22:29 41.97145 -87.90394 668 ft 12 kts 304°
2026-04-21 22:29 41.97223 -87.90440 668 ft 12 kts 352°
2026-04-21 22:30 41.97307 -87.90442 668 ft 12 kts
2026-04-21 22:30 41.97389 -87.90442 668 ft 12 kts 360°
2026-04-21 22:30 41.97469 -87.90440 668 ft 10 kts
2026-04-21 22:30 41.97498 -87.90438 668 ft 2 kts
2026-04-21 22:31 41.97510 -87.90420 668 ft 3 kts 52°
2026-04-21 22:31 41.97515 -87.90410 668 ft 0 kts 60°